Walnut Ridge, AR

9:09 AM CST on December 17, 2017 (GMT -0600)
Walnut Ridge Regional

Weather History for KARG - November, 2011

Change the Weather History Date:

Tuesday, November 29, 2011

  Actual Average Record
Temperature  
Mean Temperature 40 °F -  
Max Temperature 48 °F 52 °F 69 °F (1998)
Min Temperature 33 °F 36 °F 26 °F (2003)
Degree Days  
Heating Degree Days 24    
Moisture  
Dew Point 31 °F    
Average Humidity 77    
Maximum Humidity 100    
Minimum Humidity 54    
Precipitation  
Precipitation 0.58 in - - ()
Sea Level Pressure  
Sea Level Pressure 29.97 in    
Wind  
Wind Speed 13 mph (NW)    
Max Wind Speed 21 mph    
Max Gust Speed 28 mph    
Visibility 9 miles    
Events      
Averages and records for this station are not official NWS values.
T = Trace of Precipitation, MM = Missing Value Source: NWS Daily Summary

Daily Weather History Graph

Daily Weather History Graph

Search for Another Location

Airport or City:

Trip Planner

Search our weather history database for the weather conditions in past years. The results will help you decide how hot, cold, wet, or windy it might be!

Date:

Astronomy

Nov. 29, 2011 Rise Set
Actual Time 6:54 AM CST 4:49 PM CST
Civil Twilight 6:25 AM CST 5:17 PM CST
Nautical Twilight 5:54 AM CST 5:49 PM CST
Astronomical Twilight 5:23 AM CST 6:20 PM CST
Moon 10:43 AM CST (11/29) 9:39 PM CST (11/29)
Length of Visible Light 10h 51m
Length of Day
9h 55m
Waxing Crescent, 24% of the Moon is Illuminated
Nov 29
Waxing Crescent
Dec 2
First Quarter
Dec 10
Full
Dec 17
Last Quarter
Dec 24
New

Hourly Weather History & Observations

Time (CST) Temp. Windchill Dew Point Humidity Pressure Visibility Wind Dir Wind Speed Gust Speed Precip Events Conditions
12:35 AM 33.8 °F 25.3 °F 33.8 °F 100% 29.80 in 2.5 mi West 11.5 mph - 0.03 in   Mostly Cloudy
12:55 AM 33.8 °F 25.8 °F 30.2 °F 87% 29.80 in 3.0 mi West 10.4 mph - 0.04 in   Overcast
1:15 AM 33.8 °F 25.8 °F 33.8 °F 100% 29.81 in 3.0 mi WNW 10.4 mph - 0.02 in   Overcast
1:35 AM 33.8 °F 26.4 °F 32.0 °F 93% 29.80 in 3.0 mi West 9.2 mph - 0.03 in   Overcast
1:55 AM 33.8 °F 25.3 °F 33.8 °F 100% 29.80 in 2.5 mi West 11.5 mph - 0.04 in   Overcast
2:15 AM 33.8 °F 25.3 °F 32.0 °F 93% 29.81 in 3.0 mi WNW 11.5 mph - 0.02 in   Overcast
2:35 AM 33.8 °F 24.8 °F 33.8 °F 100% 29.80 in 6.0 mi WNW 12.7 mph - 0.04 in   Mostly Cloudy
2:55 AM 33.8 °F 24.3 °F 33.8 °F 100% 29.80 in 10.0 mi WNW 13.8 mph - 0.07 in   Overcast
3:15 AM 33.8 °F 24.8 °F 33.8 °F 100% 29.80 in 9.0 mi NW 12.7 mph 19.6 mph 0.03 in   Overcast
3:35 AM 33.8 °F 24.3 °F 33.8 °F 100% 29.80 in 10.0 mi NW 13.8 mph - 0.05 in   Mostly Cloudy
3:55 AM 33.8 °F 24.8 °F 32.0 °F 93% 29.82 in 7.0 mi NW 12.7 mph - 0.08 in   Mostly Cloudy
4:15 AM 35.6 °F 26.2 °F 32.0 °F 87% 29.82 in 9.0 mi NW 15.0 mph - 0.02 in   Overcast
4:35 AM 35.6 °F 25.9 °F 32.0 °F 87% 29.82 in 10.0 mi NW 16.1 mph - 0.05 in   Overcast
4:55 AM 33.8 °F 24.8 °F 33.8 °F 100% 29.83 in 5.0 mi NW 12.7 mph - 0.07 in   Overcast
5:15 AM 33.8 °F 24.3 °F 32.0 °F 93% 29.83 in 10.0 mi WNW 13.8 mph - 0.02 in   Overcast
5:35 AM 35.6 °F 26.6 °F 32.0 °F 87% 29.84 in 10.0 mi NW 13.8 mph - 0.04 in   Overcast
5:55 AM 35.6 °F 25.9 °F 30.2 °F 81% 29.85 in 10.0 mi NW 16.1 mph - 0.06 in   Overcast
6:35 AM 35.6 °F 26.2 °F 30.2 °F 81% 29.86 in 10.0 mi NW 15.0 mph - 0.05 in   Overcast
6:55 AM 35.6 °F 25.9 °F 30.2 °F 81% 29.87 in 10.0 mi NW 16.1 mph - 0.08 in   Overcast
7:15 AM 35.6 °F 25.9 °F 28.4 °F 75% 29.88 in 10.0 mi NW 16.1 mph - 0.02 in   Overcast
7:35 AM 35.6 °F 25.5 °F 30.2 °F 81% 29.89 in 10.0 mi NW 17.3 mph - 0.03 in   Overcast
7:55 AM 35.6 °F 25.9 °F 30.2 °F 81% 29.90 in 10.0 mi NW 16.1 mph - 0.05 in   Overcast
8:15 AM 35.6 °F 25.2 °F 28.4 °F 75% 29.91 in 10.0 mi NW 18.4 mph 23.0 mph 0.01 in   Scattered Clouds
8:35 AM 35.6 °F 25.5 °F 28.4 °F 75% 29.92 in 10.0 mi NW 17.3 mph 24.2 mph 0.02 in   Scattered Clouds
8:55 AM 35.6 °F 25.2 °F 30.2 °F 81% 29.94 in 10.0 mi NW 18.4 mph 25.3 mph 0.04 in   Overcast
9:15 AM 35.6 °F 24.5 °F 30.2 °F 81% 29.95 in 10.0 mi NW 20.7 mph 26.5 mph 0.01 in   Partly Cloudy
9:35 AM 37.4 °F 27.2 °F 30.2 °F 75% 29.96 in 10.0 mi NW 19.6 mph 23.0 mph 0.03 in   Clear
9:55 AM 37.4 °F 28.2 °F 30.2 °F 75% 29.97 in 10.0 mi NW 16.1 mph - 0.04 in   Scattered Clouds
10:35 AM 37.4 °F 27.5 °F 30.2 °F 75% 29.99 in 10.0 mi NNW 18.4 mph - 0.01 in   Mostly Cloudy
10:55 AM 37.4 °F 27.5 °F 30.2 °F 75% 29.99 in 10.0 mi NW 18.4 mph - 0.01 in   Overcast
11:15 AM 37.4 °F 28.5 °F 32.0 °F 81% 29.98 in 10.0 mi NW 15.0 mph - N/A   Overcast
11:35 AM 39.2 °F 30.5 °F 32.0 °F 75% 29.98 in 10.0 mi NNW 16.1 mph - N/A   Overcast
11:55 AM 41.0 °F 31.6 °F 30.2 °F 65% 29.97 in 10.0 mi NW 20.7 mph - N/A   Overcast
12:35 PM 42.8 °F 34.3 °F 30.2 °F 61% 29.98 in 10.0 mi NW 19.6 mph 27.6 mph N/A   Overcast
12:55 PM 42.8 °F 34.8 °F 32.0 °F 66% 29.98 in 10.0 mi NNW 17.3 mph - N/A   Scattered Clouds
1:55 PM 46.4 °F 39.5 °F 33.8 °F 62% 29.99 in 10.0 mi NNW 17.3 mph - N/A   Clear
2:15 PM 46.4 °F 40.1 °F 32.0 °F 57% 29.99 in 10.0 mi NNW 15.0 mph - N/A   Clear
2:35 PM 46.4 °F 39.8 °F 33.8 °F 62% 30.01 in 10.0 mi NNW 16.1 mph - N/A   Clear
2:55 PM 46.4 °F 39.8 °F 33.8 °F 62% 30.01 in 10.0 mi NNW 16.1 mph - N/A   Clear
3:15 PM 48.2 °F - 32.0 °F 54% 30.02 in 10.0 mi NNW 15.0 mph - N/A   Clear
3:35 PM 48.2 °F - 32.0 °F 54% 30.03 in 10.0 mi NNW 13.8 mph - N/A   Clear
3:55 PM 46.4 °F 40.7 °F 33.8 °F 62% 30.04 in 10.0 mi NNW 12.7 mph - N/A   Clear
4:15 PM 46.4 °F 40.4 °F 33.8 °F 62% 30.05 in 10.0 mi NNW 13.8 mph - N/A   Clear
5:15 PM 42.8 °F 37.5 °F 32.0 °F 66% 30.07 in 10.0 mi NW 9.2 mph - N/A   Clear
5:35 PM 42.8 °F 38.0 °F 32.0 °F 66% 30.08 in 10.0 mi NW 8.1 mph - N/A   Clear
5:55 PM 42.8 °F 39.3 °F 30.2 °F 61% 30.09 in 10.0 mi WNW 5.8 mph - N/A   Clear
6:15 PM 42.8 °F 39.3 °F 30.2 °F 61% 30.10 in 10.0 mi WNW 5.8 mph - N/A   Clear
6:35 PM 42.8 °F 38.6 °F 30.2 °F 61% 30.10 in 10.0 mi WNW 6.9 mph - N/A   Clear
6:55 PM 41.0 °F 37.1 °F 30.2 °F 65% 30.11 in 10.0 mi WNW 5.8 mph - N/A   Clear
7:35 PM 39.2 °F 33.0 °F 30.2 °F 70% 30.12 in 10.0 mi NW 9.2 mph - N/A   Clear
7:55 PM 39.2 °F 33.0 °F 32.0 °F 75% 30.12 in 10.0 mi NW 9.2 mph - N/A   Clear
8:15 PM 39.2 °F 34.2 °F 32.0 °F 75% 30.13 in 10.0 mi NW 6.9 mph - N/A   Clear
8:35 PM 37.4 °F 32.1 °F 32.0 °F 81% 30.13 in 10.0 mi WNW 6.9 mph - N/A   Clear
8:55 PM 37.4 °F 30.8 °F 30.2 °F 75% 30.14 in 10.0 mi NW 9.2 mph - N/A   Clear
9:15 PM 35.6 °F 28.6 °F 30.2 °F 81% 30.14 in 10.0 mi NW 9.2 mph - N/A   Clear
9:35 PM 37.4 °F 31.4 °F 30.2 °F 75% 30.14 in 10.0 mi NW 8.1 mph - N/A   Clear
9:55 PM 35.6 °F 29.2 °F 30.2 °F 81% 30.15 in 10.0 mi NW 8.1 mph - N/A   Clear
10:15 PM 37.4 °F 32.8 °F 28.4 °F 70% 30.15 in 10.0 mi WNW 5.8 mph - N/A   Clear
10:35 PM 37.4 °F 34.9 °F 28.4 °F 70% 30.15 in 10.0 mi WNW 3.5 mph - N/A   Clear
10:55 PM 35.6 °F 30.7 °F 28.4 °F 75% 30.15 in 10.0 mi NW 5.8 mph - N/A   Clear
11:15 PM 33.8 °F 28.6 °F 28.4 °F 81% 30.15 in 10.0 mi NW 5.8 mph - N/A   Clear
11:35 PM 35.6 °F 29.9 °F 28.4 °F 75% 30.15 in 10.0 mi NW 6.9 mph - N/A   Clear
11:55 PM 35.6 °F 29.9 °F 26.6 °F 70% 30.16 in 10.0 mi West 6.9 mph - N/A   Clear